{"data":{"norad_id":61611,"intl_designator":"2024-188T","name":"ONEWEB-0706","alt_names":[],"object_type":"PAYLOAD","status":"ACTIVE","operator":null,"country":"UK","launch_date":"2024-10-20","launch_site_code":"AFWTR","launch_vehicle":null,"mission":null,"orbit_class":"UNKNOWN","rcs_meters":null,"size_class":null,"mass_kg":null,"dimensions":null,"purposes":["comms"],"wikipedia_slug":null,"has_3d_model":false,"image_url":null,"decayed_at":null,"tle_current":{"epoch":"2026-09-19T15:59:08.841120Z","epoch_age_seconds":97846,"freshness":"FRESH","line1":"1 61611U 24188T   26262.66607455 -.00000541  00000+0 -15857-2 0  9994","line2":"2 61611  87.8912  17.4594 0001201 109.7411 250.3846 13.10374972 95750","mean_motion":13.10374972,"eccentricity":0.0001201,"inclination_deg":87.8912,"raan_deg":17.4594,"arg_perigee_deg":109.7411,"mean_anomaly_deg":250.3846,"bstar":-0.0015857,"rev_number":9575,"period_min":109.89220877763,"perigee_km":1220.7960769772,"apogee_km":1222.6215599428,"semimajor_km":7599.84581846,"source":"CELESTRAK","updated_at":"2026-09-20T09:00:44.801945Z"}}}